Location: *
(45.9500°N, 9.0833°E)
Time: 20:33:49
(UTC+00:00)

Tiros 1 despin weight - Pass Details

Date: 26 June 2021
Orbit: 593 x 642 km, 48.2° (Epoch: 05 August)

Event Time Altitude Azimuth Distance (km) Brightness Sun altitude
Rises 05:36:26 0° 276° (W) 2,833 ? 18.2°
Reaches altitude 10° 05:38:45 10° 280° (W) 1,927 ? 18.6°
Maximum altitude 05:43:07 64° 2° (N) 657 ? 19.3°
Drops below altitude 10° 05:47:30 10° 85° (E) 1,924 ? 20.1°
Sets 05:49:49 0° 88° (E) 2,828 ? 20.5°
